This is the latest recevied weather packets stored in our database for station/object KB3HLL. If no packets are shown the sender has not sent any weather packets the latest 10 day(s).
| Time | Temp. | Humidity | Pressure | Rain* | Wind** | Luminosity | Snow |
|---|---|---|---|---|---|---|---|
| 1777567881 | 9.44° C | 81% | 1010 hPa | 0 mm | - | 185 W/m² | - |
| 1777567577 | 9.44° C | 83% | 1009.9 hPa | 0 mm | - | 185 W/m² | - |
| 1777567278 | 9.44° C | 80% | 1010 hPa | 0 mm | - | 250 W/m² | - |
| 1777566979 | 9.44° C | 81% | 1010 hPa | 0 mm | - | 297 W/m² | - |
| 1777566678 | 10° C | 81% | 1010 hPa | 0 mm | - | 323 W/m² | - |
| 1777566378 | 9.44° C | 80% | 1009.9 hPa | 0 mm | - | 461 W/m² | - |
| 1777566079 | 9.44° C | 82% | 1009.9 hPa | 0 mm | - | 1067 W/m² | - |
| 1777565778 | 9.44° C | 83% | 1010 hPa | 0 mm | - | 408 W/m² | - |
| 1777565478 | 9.44° C | 85% | 1010.1 hPa | 0 mm | - | 242 W/m² | - |
| 1777565178 | 8.89° C | 83% | 1010 hPa | 0 mm | - | 295 W/m² | - |
| 1777564878 | 9.44° C | 85% | 1010 hPa | 0 mm | - | 255 W/m² | - |
| 1777564578 | 9.44° C | 85% | 1010 hPa | 0 mm | - | 359 W/m² | - |
| 1777564278 | 9.44° C | 83% | 1010.1 hPa | 0 mm | - | 539 W/m² | - |
| 1777563978 | 9.44° C | 84% | 1010.2 hPa | 0 mm | - | 652 W/m² | - |
| 1777563679 | 9.44° C | 85% | 1010.1 hPa | 0 mm | - | 372 W/m² | - |
| 1777563378 | 9.44° C | 85% | 1010 hPa | 0 mm | - | 367 W/m² | - |
| 1777563078 | 8.89° C | 86% | 1010 hPa | 0 mm | - | 493 W/m² | - |
| 1777562777 | 8.89° C | 85% | 1010 hPa | 0 mm | - | 1054 W/m² | - |
| 1777562479 | 8.33° C | 88% | 1010 hPa | 0 mm | - | 596 W/m² | - |
| 1777562178 | 8.33° C | 92% | 1010 hPa | 0 mm | - | 1111 W/m² | - |
| 1777561878 | 8.33° C | 88% | 1009.9 hPa | 0 mm | - | 387 W/m² | - |
| 1777561578 | 8.33° C | 91% | 1009.9 hPa | 0 mm | - | 466 W/m² | - |
| 1777561278 | 8.33° C | 90% | 1009.6 hPa | 0 mm | - | 766 W/m² | - |
| 1777560978 | 7.78° C | 89% | 1009.8 hPa | 0 mm | - | 821 W/m² | - |
| 1777560681 | 7.22° C | 93% | 1009.8 hPa | 0 mm | - | 409 W/m² | - |
* Rain latest hour (hover to see other rain measurements)
** Current wind speed in m/s (hover to see current wind gust speed)